DECAYED

STARLINK-1977, 47575 (Decayed)

Orbit data source: Space-Track

STARLINK-1977, 47575 was a payload satellite owned by SpaceX/Seattle (US) in LEO that was launched on Thu, 04 Feb 2021 UTC via an FALCON 9 launch vehicle from the Air Force Eastern Test Range (AFETR). Payload-class satellites include a variety of spacecraft equipped with specific instruments for various scientific and technological missions. These include communications satellites like Starlink; space stations such as the ISS; scientific satellites like the Hubble; Earth observation satellites from companies like Planet Labs, Umbra, and HawkEye 360; GPS; miniature CubeSats for education and research; and military/defense satellites.

Not visible in the next 10 days
Identifier
47575, 2021-009AD
Orbit
Decayed
Country
Flag of USUS
Related business
Manufacturer
SpaceX/Seattle
Mission
Decayed Commercial Communications
Bus & Motor
STARLINK, Unknown motor
Mass
260 kg wet, ~248 kg dry
Launch date (UTC)
2021-02-04 (5 years ago)
Launch vehicle
FALCON 9
Launch site
Air Force Eastern Test Range (AFETR)
Object type
Payload
Rocket body
Debris
Shape & HBR
Box + 1 Pan, 10.1 m
Radar Cross Section
13.562 m², Large (>1 m²)

Expand to show TLE details & history
Last TLE update: 1 year ago

TLE from 1 year ago
0 STARLINK-1977
1 47575U 21009AD  25056.65357193  .19360286  12572-4  45029-3 0  9996
2 47575  53.0251 249.5781 0007459 291.2550 148.1463 16.45856586224909
Epoch: 2025-02-25T15:41Z
TLE epoch observation values (Epoch: 2025-02-25T15:41:08.614Z)
Latitude
51.91415°
Longitude
-68.69237°
Altitude
160.594 km
Speed
7.814 km/s
True Right ascension
21h 29m 23s
True Declination
51° 43' 54"
Sunlit
Object was in daylight at epoch
Visualization orbit readout
Latitude
Unknown
Longitude
Unknown
Altitude
Unknown
Speed
Unknown
Apparent Right ascension
Unknown
Apparent Declination
Unknown
Sunlit
N/A
Visualization observer readout
Local Sidereal Time
02:13:10
Azimuth
Unknown
Elevation
Unknown
Doppler factor
Unknown
Orbital elements
Apogee altitude
155.431 km
Perigee altitude
145.691 km
Semi-major axis
6,528.698 km
Eccentricity
0.00075
Inclination
53.0251°
RAAN
249.5781°
Arg. of periapsis
291.255°
True anomaly
148.19137°
Mean anomaly
148.1463°
Eccentric anomaly
148.16884°
Mean motion
4.11437 °/min
Orbital period
87.5 mins
BSTAR
0.00045029
Loading maneuver chart data...
Computing Atmospheric mass density...

Documentation

Showing up to 5 results
|